www.pogodaiklimat.ru
ПОГОДА на Ангарском Перевале

Архив погоды на Ангарском Перевале (Крым, Россия)

Время
(UTC), дата
18 18.02
21 18.02
00 19.02
03 19.02
06 19.02
09 19.02
12 19.02
15 19.02
18 19.02
21 19.02
00 20.02
03 20.02
06 20.02
09 20.02
12 20.02
15 20.02
18 20.02
21 20.02
00 21.02
03 21.02
06 21.02
09 21.02
12 21.02
15 21.02
18 21.02
21 21.02
00 22.02
03 22.02
06 22.02
09 22.02
12 22.02
15 22.02
18 22.02
21 22.02
00 23.02
03 23.02
06 23.02
09 23.02
12 23.02
15 23.02
18 23.02
21 23.02
00 24.02
03 24.02
06 24.02
09 24.02
12 24.02
15 24.02
18 24.02
21 24.02
00 25.02
03 25.02
06 25.02
09 25.02
Ветер
(напр.,м/с)
Видим. Явления Облачность Т
(С)
Тd
(С)
f
(%)
Тe
(С)
Тes
(С)
Комфортность P
(гПа)
Po
(гПа)
Тmin
(С)
Tmax
(С)
R
(мм)
R24
(мм)
S
(см)
С 1 200 м туман, небо не видно ?/? -0.3 -0.3 100 -3 -3 1026.9 933.6 +3.6
СЗ 1 200 м переохл. туман ?/? -0.9 -1.1 99 -3 -3 1026.5 933.0
С 2 200 м слаб. ливневой дождь {туман} туман ?/? -0.7 -0.8 99 -5 -5 1026.1 932.7
С 1 500 м слаб. ливневой дождь {туман} туман ?/? -1.1 -1.1 100 -3 -3 1025.5 932.0 -1.1 1
С 3 4000 м туман на расстоянии {ливн. снег} 9/8 200 м [Cb cap Ac trans] -0.8 -1.5 95 -6 -6 1025.7 932.3 -1.1 1 1
СЗ 2 20 км 10/10 600 м [Sc] +0.7 -3.6 73 -3 -3 1025.5 932.6
СЗ 2 20 км 9/9 600 м [Sc] +0.7 -5.5 63 -2 -2 1024.7 931.8
С 2 20 км 9/9 600 м [Sc] -1.2 -4.5 78 -5 -5 1025.6 932.0 0.0
С 1 20 км 9/9 600 м [Sc] -1.8 -4.6 81 -4 -4 1026.5 932.6 +1.8
СЗ 2 20 км 8/8 600 м [Sc] -2.6 -4.2 89 -7 -7 1026.9 932.7
штиль 0 20 км 10/10 600 м [Sc] -2.8 -4.5 88 -4 -4 1026.6 932.4
Ю 2 4000 м туман на расстоянии 10/10 200 м [Cb cap] -2.8 -3.5 95 -7 -7 1026.3 932.2 -3.3
ЮВ 1 4000 м слаб. ливневой снег 10/10 200 м [Cb cap] -2.5 -3.2 95 -5 -5 1026.9 932.8 -3.3 0.0
Ю 2 4000 м туман на расстоянии {ливн. снег} 10/10 200 м [Cb cap] -2.0 -2.6 96 -6 -6 1026.9 933.0
Ю 2 4000 м туман на расстоянии {ливн. снег} 10/10 200 м [Sc] -1.5 -2.0 96 -6 -6 1026.1 932.4
ЮВ 2 500 м туман, небо не видно ?/? -2.0 -2.0 100 -6 -6 1026.6 932.7 0.0
Ю 2 4000 м слаб. ливневой снег {туман} 10/10 200 м [Cb cap] -2.2 -2.8 96 -6 -6 1027.0 933.0 -1.2 0.0
ЮВ 2 4000 м слаб. ливневой снег 10/10 200 м [Cb cap] -2.4 -3.1 95 -7 -7 1027.1 933.0
Ю 2 4000 м туман на расстоянии {ливн. снег} 10/10 200 м [Sc] -1.8 -2.7 94 -6 -6 1026.5 932.7
Ю 1 4000 м туман на расстоянии 10/10 200 м [Sc] -1.5 -2.3 94 -4 -4 1026.2 932.5 -2.4 0.0
Ю 1 200 м туман, небо не видно ?/? -0.9 -1.1 99 -3 -3 1026.5 933.0 -2.4 0.0
Ю 2 500 м переохл. туман ?/? -0.1 -0.1 100 -4 -4 1026.8 933.5
ЮВ 2 200 м туман, небо не видно ?/? +0.3 +0.3 100 -4 -4 1025.4 932.4
Ю 2 200 м слаб. ливневой снег {туман} туман ?/? +0.2 +0.2 100 -4 -4 1025.5 932.4 0.0
Ю 2 200 м туман, небо не видно {ливн. снег} ?/? +0.3 +0.3 100 -4 -4 1025.4 932.4 +0.6 0.1
Ю 2 200 м слаб. ливневой снег {туман} туман ?/? +0.6 +0.6 100 -3 -3 1024.8 931.9
Ю 2 200 м слаб. ливневой снег {туман} туман ?/? +0.3 +0.3 100 -4 -4 1024.1 931.2
Ю 2 200 м ливневой снег {туман} туман ?/? +0.2 +0.2 100 -4 -4 1022.8 930.0 0.0 5
Ю 2 200 м ливневой снег {туман} [диам. отлож. мокр. снега 11 мм] ?/? +0.1 +0.1 100 -4 -4 1023.1 930.2 +0.1 9 5
Ю 3 200 м ливневой снег {туман} туман ?/? +0.4 +0.4 100 -4 -4 1023.0 930.2
Ю 2 200 м ливневой снег {туман} туман ?/? +0.4 +0.4 100 -3 -3 1022.4 929.7
Ю 2 200 м туман, небо не видно {ливн. снег} ?/? +0.9 +0.9 100 -3 -3 1021.5 929.1 15
Ю 1 20 км {ливн. снег, туман} 9/9 600 м [Sc] +0.1 -1.0 92 -2 -2 1022.1 929.3 +1.1 11
Ю 1 10 км 9/8 300 м [Sc Ac trans] +0.1 -0.8 94 -2 -2 1022.1 929.3
Ю 2 10 км 9/9 300 м [Sc] +0.2 -0.9 92 -4 -4 1021.7 929.0
Ю 2 10 км в посл. час туман 8/8 300 м [Sc] +0.2 -0.6 94 -4 -4 1022.0 929.3 0.0
Ю 2 4000 м туман на расстоянии 6/6 200 м [Sc] +0.6 0.0 96 -3 -2 1022.8 930.1 0.0 7
ЮВ 3 4000 м туман на расстоянии 8/8 200 м [Cb cap] +2.2 +0.9 91 -2 -1 1023.1 930.9
Ю 2 10 км 9/9 300 м [Cb cap] +2.5 +1.2 91 -1 -0 1023.4 931.3
Ю 3 200 м туман, небо не видно ?/? +2.1 +2.1 100 -2 -2 1024.0 931.7
Ю 2 200 м туман, небо не видно ?/? +1.9 +1.9 100 -2 -2 1024.9 932.5 +3.1
Ю 3 200 м туман, небо не видно ?/? +2.0 +2.0 100 -3 -3 1025.0 932.6
Ю 2 500 м туман, небо не видно ?/? +1.7 +1.7 100 -2 -2 1025.6 933.0
Ю 2 20 км {туман} 9/0 [Ac As] +1.5 -1.0 83 -2 -2 1025.4 932.8 +0.7
Ю 3 20 км {туман} 9/0 [Ac trans] +3.2 -1.2 73 -1 0 1025.7 933.6 +0.7 4
Ю 3 20 км 9/0 [Ac trans] +5.3 -2.1 59 +2 +5 1025.5 934.0
Ю 3 50 км 6/0 [Ac trans] +7.8 -2.6 48 +6 +8 1024.5 933.9
Ю 2 50 км 3/0 [Ci fib] +3.6 -2.0 67 +1 +1 1026.0 933.9
Ю 2 50 км 1/0 [Ci fib] +3.2 -3.6 61 +1 +1 1026.9 934.6 +8.3
Ю 2 50 км ясно +3.0 -3.8 61 0 0 1026.8 934.5
Ю 2 50 км 1/0 [Ci fib] +3.6 -5.7 51 +1 +1 1026.5 934.4
Ю 1 50 км ясно +2.6 -4.7 59 +2 +2 1026.1 933.7 +2.0
ЮВ 1 20 км ясно +8.4 -5.5 37 +8 +11 1024.4 933.9 +2.0
ЮВ 2 50 км 1/1 600 м [Cu med, cong] +10.1 +2.0 57 +9 +16 1023.4 933.6
Местоположение метеостанции Ангарский Перевал (Крым, Россия): широта 44.75 долгота 34.35 высота над уровнем моря 769 м.
В архиве по умолчанию представлена погода на Ангарском Перевале за последнюю неделю. Архивные данные за месяц целиком и за предыдущие месяцы, начиная с января 2011 года, Вы можете получить, выбрав интересующий диапазон дат из раскрывающегося списка и нажав кнопку "Найти!".
*Определитесь, кто Вы:
Внимание! Время в таблицах - всемирное. Для получения местного времени необходимо прибавить поправку, которая равна 3 ч.
Некоторые строки с данными для отдельных станций могут быть выделены курсивом. Это означает, что фактические данные отсутствуют по различным причинам, а приведенные значения являются расчетными модельными данными для данного пункта наблюдений.
Смотрите также архив погоды в соседних городах и на ближайших метеорологических станциях:
Партнеры нашего сайта:      
Пояснения к столбцам:
  • Ветер - указаны скорость ветра в м/с - средняя за 10 мин, порывы в срок и между сроками (в фигурных скобках) и направление, откуда дует ветер: С - северный,
  • СВ - северо-восточный, В - восточный, ЮВ - юго-восточный, Ю - южный, ЮЗ - юго-западный, З - западный, СЗ - северо-западный.
  • Видимость - горизонтальная дальность видимости в метрах или километрах. При видимости от 1 до 10 км при отсутствии осадков обычно наблюдается дымка, при ухудшении видимости до 1 км и менее - туман. В сухую погоду видимость может ухудшаться дымом, пылью или мглою.
  • Явления - указаны атмосферные явления, наблюдавшиеся в срок или в последний час перед сроком; фигурными скобками обозначены явления, наблюдавшиеся между сроками (за 1-3 часа до срока); квадратными скобками обозначены град или гололедные отложения с указанием их диаметра в мм.
  • Облачность - указаны через наклонную черту общая и нижняя облачность в баллах и высота нижней границы облаков в метрах; квадратными скобками обозначены формы облаков: Ci - перистые, Cs - перисто-слоистые, Cc - перисто-кучевые, Ac - высококучевые, As - высокослоистые, Sc - слоисто-кучевые, Ns - слоисто-дождевые, Cu - кучевые, Cb - кучево-дождевые. Подробнее классификацию облаков см. в Атласе облаков (PDF).
  • T - Температура воздуха - температура, измеренная на высоте 2 м над землей.
  • Td - Температура точки росы - температура, при понижении до которой содержащийся в воздухе водяной пар достигнет насыщения.
  • f - Относительная влажность воздуха - влажноcть воздуха, измеренная на высоте 2 м над землей.
  • Te - Эффективная температура - температура, которую ощущает одетый по сезону человек в тени. Характеристика душности погоды. При расчете учитывается влияние влажности воздуха и скорости ветра на теплоощущения человека.
  • Tes - Эффективная температура на солнце - температура, которую ощущает человек, с поправкой на солнечный нагрев. Характеристика знойности погоды. Зависит от высоты солнца над горизонтом, облачности и скорости ветра. Ночью, в пасмурную погоду, а также при ветре 12 м/с и более поправка равна нулю.
  • P - Атмосферное давление - приведенное к уровню моря атмосферное давление.
  • Po - Атмосферное давление - измеренное на уровне метеостанции атмосферное давление.
  • Tmin - Минимальная температура - минимум температуры воздуха на высоте 2 м над землей.
  • Tmax - Максимальная температура - максимум температуры воздуха на высоте 2 м над землей.
  • R - Количество осадков - Количество выпавших осадков за период времени, мм. При наведении курсора мыши на число - период времени, за который выпало указанное количество осадков.
  • R24 - Количество осадков - Количество выпавших осадков за 24 часа, мм.
  • S - Снежный покров - Высота снежного покрова, см. При наведении курсора мыши на число - состояние снежного покрова и степень покрытия местности в баллах.